TimeCDT,TemperatureF,Dew PointF,Humidity,Sea Level PressureIn,VisibilityMPH,Wind Direction,Wind SpeedMPH,Gust SpeedMPH,PrecipitationIn,Events,Conditions,WindDirDegrees,DateUTC
1:53 AM,48.0,36.0,63,30.02,10.0,Calm,Calm,-,N/A,,Clear,0,2011-10-13 06:53:00
2:53 AM,48.0,36.0,63,30.02,10.0,WNW,10.4,-,N/A,,Clear,290,2011-10-13 07:53:00
3:53 AM,44.1,35.1,71,30.02,10.0,SW,3.5,-,N/A,,Clear,230,2011-10-13 08:53:00
4:53 AM,45.0,35.1,68,30.02,10.0,Variable,3.5,-,N/A,,Clear,0,2011-10-13 09:53:00
5:53 AM,42.1,35.1,76,30.03,10.0,Calm,Calm,-,N/A,,Clear,0,2011-10-13 10:53:00
6:53 AM,43.0,35.1,74,30.03,10.0,West,5.8,-,N/A,,Clear,260,2011-10-13 11:53:00
7:53 AM,41.0,34.0,76,30.05,10.0,WSW,4.6,-,N/A,,Clear,240,2011-10-13 12:53:00
8:53 AM,48.9,36.0,61,30.05,10.0,Calm,Calm,-,N/A,,Clear,0,2011-10-13 13:53:00
9:53 AM,57.0,37.0,47,30.05,10.0,WSW,9.2,-,N/A,,Clear,250,2011-10-13 14:53:00
10:53 AM,64.0,35.1,34,30.04,10.0,SSW,9.2,-,N/A,,Clear,210,2011-10-13 15:53:00
11:53 AM,68.0,33.1,27,30.00,10.0,South,10.4,-,N/A,,Clear,190,2011-10-13 16:53:00
12:53 PM,71.1,34.0,26,29.97,10.0,South,13.8,-,N/A,,Clear,170,2011-10-13 17:53:00
1:53 PM,75.0,36.0,24,29.92,10.0,SSW,13.8,-,N/A,,Clear,200,2011-10-13 18:53:00
2:53 PM,77.0,37.9,24,29.86,10.0,SSW,23.0,27.6,N/A,,Clear,210,2011-10-13 19:53:00
3:53 PM,77.0,39.9,26,29.85,10.0,SSW,15.0,24.2,N/A,,Clear,200,2011-10-13 20:53:00
4:53 PM,77.0,37.9,24,29.82,10.0,South,16.1,24.2,N/A,,Clear,190,2011-10-13 21:53:00
5:53 PM,77.0,39.0,25,29.81,10.0,SSW,12.7,-,N/A,,Clear,210,2011-10-13 22:53:00
7:53 PM,69.1,41.0,36,29.83,10.0,SE,3.5,-,N/A,,Clear,140,2011-10-14 00:53:00
8:53 PM,62.1,39.9,44,29.85,10.0,South,4.6,-,N/A,,Clear,190,2011-10-14 01:53:00
9:53 PM,60.1,39.9,47,29.84,10.0,SSE,4.6,-,N/A,,Clear,160,2011-10-14 02:53:00
10:53 PM,57.9,41.0,53,29.83,10.0,SSE,4.6,-,N/A,,Clear,150,2011-10-14 03:53:00
11:53 PM,54.0,39.9,59,29.83,10.0,South,3.5,-,N/A,,Clear,180,2011-10-14 04:53:00